Content
SEND FEEDBACK

Daily
Averages
Monthly
Summary
United States of America

CARSON CITY, NEVADA


Home > North America > United States > Nevada
Elevation: 4742 feet     Latitude: 39 09N     Longitude: 119 46W

WEATHER
 
SELECT A DAY
Number of Records: 96,838;   Date Range: 7/14/10 - 9/29/14
 
SHARE

PRINT THIS DATA

[ ← Previous Day ]
WEATHER ALMANAC - JUNE 21, 2013
[ Next Day → ]
[ °C ]   °F
Weather ElementAverageHighLow
Temperature62.4 °F77 °F (3:55 pm)44.6 °F (5:15 am)
Dewpoint29.7 °F35.6 °F (9:55 pm)24.8 °F (12:55 pm)
Humidity32.2 %61 % (5:15 am)15 % (1:55 pm)
Barometer30.07 in30.14 in (6:15 am)30.01 in (5:15 pm)
Wind Speed5.7 mph15 mph (11:55 pm)
Wind Gust21.9 mph (11:35 pm)
Weather ElementAverage
Visibility10 mi
Wind DirectionSSE (173.9 °)

Weather ElementTotal
Precipitation---
Heating Degree Days4.2 (Base 65)
Growing Degree Days10.8 (Base 50)
Averaged from 71 records on June 21, 2013
WEATHER CONDITIONS BREAKOUT
WIND DIRECTION BREAKOUT
WEATHER BY HOUR - JUNE 21, 2013
[ °C ]   °F
Local TimeTemperatureDewpointHumidityBarometerVisibilityWind DirectionWind SpeedGust SpeedPrecipitationEventsConditions
12:35 AM53.6 °F28.4 °F38 %30.08 in10.0 miNorth (360°)3.5 mphClear
12:55 AM53.6 °F28.4 °F38 %30.09 in10.0 miNW (320°)4.6 mphClear
1:15 AM55.4 °F26.6 °F33 %30.08 in10.0 miWest (270°)4.6 mphClear
1:35 AM53.6 °F28.4 °F38 %30.09 in10.0 miNNW (330°)11.5 mphClear
1:55 AM50.0 °F28.4 °F43 %30.09 in10.0 miCalmClear
2:15 AM50.0 °F28.4 °F43 %30.09 in10.0 miCalmClear
2:35 AM51.8 °F32.0 °F47 %30.10 in10.0 miNNW (340°)4.6 mphClear
2:55 AM50.0 °F32.0 °F50 %30.10 in10.0 miNNE (20°)5.8 mphClear
3:15 AM50.0 °F32.0 °F50 %30.10 in10.0 miNNW (330°)6.9 mphClear
3:35 AM50.0 °F32.0 °F50 %30.10 in10.0 miNNW (340°)8.1 mphClear
3:55 AM50.0 °F32.0 °F50 %30.10 in10.0 miNW (320°)5.8 mphClear
4:15 AM50.0 °F32.0 °F50 %30.11 in10.0 miNW (320°)5.8 mphClear
4:35 AM48.2 °F32.0 °F54 %30.11 in10.0 miCalmClear
4:55 AM46.4 °F32.0 °F57 %30.12 in10.0 miNorth (350°)3.5 mphClear
5:15 AM44.6 °F32.0 °F61 %30.12 in10.0 miCalmClear
5:35 AM46.4 °F32.0 °F57 %30.12 in10.0 miSSW (210°)3.5 mphClear
5:55 AM46.4 °F32.0 °F57 %30.13 in10.0 miCalmClear
6:15 AM46.4 °F32.0 °F57 %30.14 in10.0 miCalmClear
6:35 AM48.2 °F32.0 °F54 %30.14 in10.0 miCalmClear
6:55 AM50.0 °F32.0 °F50 %30.14 in10.0 miCalmClear
7:15 AM50.0 °F32.0 °F50 %30.14 in10.0 miCalmClear
7:35 AM51.8 °F32.0 °F47 %30.13 in10.0 miCalmClear
7:55 AM55.4 °F32.0 °F41 %30.13 in10.0 miENE (70°)3.5 mphClear
8:15 AM55.4 °F32.0 °F41 %30.14 in10.0 miEast (90°)3.5 mphClear
8:35 AM55.4 °F32.0 °F41 %30.13 in10.0 miCalmClear
8:55 AM57.2 °F32.0 °F38 %30.12 in10.0 miCalmClear
9:15 AM57.2 °F32.0 °F38 %30.11 in10.0 miSW (220°)3.5 mphClear
9:35 AM59.0 °F32.0 °F36 %30.11 in10.0 miNE (50°)3.5 mphClear
9:55 AM60.8 °F32.0 °F34 %30.11 in10.0 miNE (50°)4.6 mphClear
10:15 AM62.6 °F32.0 °F32 %30.10 in10.0 miNE (40°)4.6 mphClear
10:35 AM62.6 °F32.0 °F32 %30.10 in10.0 miNE (50°)5.8 mphClear
10:55 AM62.6 °F32.0 °F32 %30.09 in10.0 miSouth (190°)4.6 mphClear
11:15 AM64.4 °F32.0 °F30 %30.09 in10.0 miSSE (160°)4.6 mphClear
11:35 AM64.4 °F32.0 °F30 %30.09 in10.0 miCalmClear
11:55 AM68.0 °F30.2 °F24 %30.08 in10.0 miENE (70°)5.8 mphClear
12:15 PM68.0 °F28.4 °F23 %30.07 in10.0 miESE (120°)5.8 mphClear
12:35 PM71.6 °F28.4 °F20 %30.07 in10.0 miEast (80°)11.5 mphClear
12:55 PM71.6 °F24.8 °F17 %30.06 in10.0 miNE (50°)10.4 mphClear
1:15 PM73.4 °F24.8 °F16 %30.06 in10.0 miEast (80°)9.2 mphClear
1:35 PM73.4 °F24.8 °F16 %30.05 in10.0 miNE (50°)9.2 mph17.3 mphClear
1:55 PM75.2 °F24.8 °F15 %30.05 in10.0 miESE (110°)9.2 mphClear
2:15 PM73.4 °F24.8 °F16 %30.04 in10.0 miSSE (160°)6.9 mphClear
2:35 PM73.4 °F24.8 °F16 %30.04 in10.0 miSE (130°)4.6 mphClear
2:55 PM75.2 °F24.8 °F15 %30.03 in10.0 miNNE (20°)8.1 mphClear
3:15 PM73.4 °F24.8 °F16 %30.03 in10.0 miCalmPartly Cloudy
3:35 PM75.2 °F24.8 °F15 %30.02 in10.0 miSE (140°)4.6 mphPartly Cloudy
3:55 PM77.0 °F26.6 °F16 %30.02 in10.0 miWest (280°)8.1 mph18.4 mphClear
4:15 PM75.2 °F26.6 °F17 %30.02 in10.0 miNW (310°)12.7 mph16.1 mphClear
4:35 PM75.2 °F24.8 °F15 %30.02 in10.0 miWest (270°)10.4 mph16.1 mphClear
4:55 PM75.2 °F24.8 °F15 %30.02 in10.0 miWest (280°)6.9 mphClear
5:15 PM75.2 °F24.8 °F15 %30.01 in10.0 miWNW (300°)9.2 mph17.3 mphClear
5:35 PM75.2 °F24.8 °F15 %30.01 in10.0 miSSW (210°)5.8 mphClear
5:55 PM75.2 °F24.8 °F15 %30.01 in10.0 miWest (270°)10.4 mphClear
6:15 PM75.2 °F24.8 °F15 %30.01 in10.0 miWSW (240°)12.7 mph17.3 mphClear
6:35 PM73.4 °F24.8 °F16 %30.01 in10.0 miWSW (240°)9.2 mph17.3 mphClear
6:55 PM73.4 °F26.6 °F18 %30.02 in10.0 miWSW (250°)10.4 mph18.4 mphClear
7:15 PM71.6 °F28.4 °F20 %30.02 in10.0 miWSW (250°)10.4 mphClear
7:35 PM71.6 °F28.4 °F20 %30.02 in10.0 miWest (280°)6.9 mphClear
7:55 PM69.8 °F28.4 °F21 %30.02 in10.0 miWest (270°)9.2 mphClear
8:15 PM69.8 °F28.4 °F21 %30.03 in10.0 miWest (280°)10.4 mph17.3 mphClear
8:35 PM68.0 °F28.4 °F23 %30.03 in10.0 miWNW (300°)6.9 mphClear
8:55 PM68.0 °F32.0 °F26 %30.04 in10.0 miNW (310°)8.1 mphClear
9:15 PM66.2 °F32.0 °F28 %30.05 in10.0 miNorth (350°)9.2 mphClear
9:35 PM66.2 °F33.8 °F30 %30.06 in10.0 miNorth (350°)9.2 mphClear
9:55 PM64.4 °F35.6 °F34 %30.06 in10.0 miNW (320°)10.4 mphClear
10:15 PM66.2 °F35.6 °F32 %30.07 in10.0 miNW (310°)8.1 mphClear
10:35 PM64.4 °F35.6 °F34 %30.07 in10.0 miWSW (250°)3.5 mphClear
10:55 PM59.0 °F35.6 °F42 %30.08 in10.0 miCalmClear
11:15 PM62.6 °F35.6 °F37 %30.08 in10.0 miNNW (340°)4.6 mphClear
11:35 PM64.4 °F32.0 °F30 %30.08 in10.0 miNW (320°)8.1 mph21.9 mphClear
11:55 PM64.4 °F28.4 °F26 %30.08 in10.0 miNNW (330°)15.0 mph19.6 mphClear
Hourly data recorded from KCXP, located miles away from Carson City, Nevada







STORIES FROM OUR PARTNERS